owner,sensor,date,latitude,longitude,vertical_datum,wind_speed,wind_to_direction,wind_speed_of_gust,qcFlag 
ADCP,ioos:station:wmo:42369:1,2013-12-20T00:00:00Z,27.2070,-90.2830,60.4,6.0,113.0,99.0,'11111222,11111222,11144222' 
ADCP,ioos:station:wmo:42369:1,2013-12-20T00:20:00Z,27.2070,-90.2830,60.4,6.0,113.0,99.0,'11111222,11111222,11144222' 
ADCP,ioos:station:wmo:42369:1,2013-12-20T00:40:00Z,27.2070,-90.2830,60.4,6.0,113.0,99.0,'11111222,11111222,11144222' 
ADCP,ioos:station:wmo:42369:1,2013-12-20T01:00:00Z,27.2070,-90.2830,60.4,6.0,113.0,99.0,'11111222,11111222,11144222' 
ADCP,ioos:station:wmo:42369:1,2013-12-20T01:20:00Z,27.2070,-90.2830,60.4,6.0,113.0,99.0,'11111222,11111222,11144222' 
ADCP,ioos:station:wmo:42369:1,2013-12-20T01:40:00Z,27.2070,-90.2830,60.4,6.0,113.0,99.0,'11111222,11111222,11144222' 
ADCP,ioos:station:wmo:42369:1,2013-12-20T02:00:00Z,27.2070,-90.2830,60.4,6.7,107.0,99.0,'11111222,11111222,11144222' 
ADCP,ioos:station:wmo:42369:1,2013-12-20T02:20:00Z,27.2070,-90.2830,60.4,6.7,107.0,99.0,'11111222,11111222,11144222' 
ADCP,ioos:station:wmo:42369:1,2013-12-20T02:40:00Z,27.2070,-90.2830,60.4,6.7,107.0,99.0,'11111222,11111222,11144222' 
ADCP,ioos:station:wmo:42369:1,2013-12-20T03:00:00Z,27.2070,-90.2830,60.4,6.7,107.0,99.0,'11111222,11111222,11144222' 
ADCP,ioos:station:wmo:42369:1,2013-12-20T03:20:00Z,27.2070,-90.2830,60.4,6.7,107.0,99.0,'11111222,11111222,11144222' 
ADCP,ioos:station:wmo:42369:1,2013-12-20T03:40:00Z,27.2070,-90.2830,60.4,6.7,107.0,99.0,'11111222,11111222,11144222' 
ADCP,ioos:station:wmo:42369:1,2013-12-20T04:00:00Z,27.2070,-90.2830,60.4,8.2,129.0,99.0,'11111222,11111222,11144222' 
ADCP,ioos:station:wmo:42369:1,2013-12-20T04:20:00Z,27.2070,-90.2830,60.4,8.2,129.0,99.0,'11111222,11111222,11144222' 
ADCP,ioos:station:wmo:42369:1,2013-12-20T04:40:00Z,27.2070,-90.2830,60.4,8.2,129.0,99.0,'11111222,11111222,11144222' 
ADCP,ioos:station:wmo:42369:1,2013-12-20T05:00:00Z,27.2070,-90.2830,60.4,8.2,129.0,99.0,'11111222,11111222,11144222' 
ADCP,ioos:station:wmo:42369:1,2013-12-20T05:20:00Z,27.2070,-90.2830,60.4,8.2,129.0,99.0,'11111222,11111222,11144222' 
ADCP,ioos:station:wmo:42369:1,2013-12-20T05:40:00Z,27.2070,-90.2830,60.4,8.2,129.0,99.0,'11111222,11111222,11144222' 
ADCP,ioos:station:wmo:42369:1,2013-12-20T06:00:00Z,27.2070,-90.2830,60.4,7.4,139.0,99.0,'11111222,11111222,11144222' 
ADCP,ioos:station:wmo:42369:1,2013-12-20T06:20:00Z,27.2070,-90.2830,60.4,7.4,139.0,99.0,'11111222,11111222,11144222' 
ADCP,ioos:station:wmo:42369:1,2013-12-20T06:40:00Z,27.2070,-90.2830,60.4,6.3,141.0,99.0,'11111222,11111222,11144222' 
ADCP,ioos:station:wmo:42369:1,2013-12-20T07:00:00Z,27.2070,-90.2830,60.4,6.3,141.0,99.0,'11111222,11111222,11144222' 
ADCP,ioos:station:wmo:42369:1,2013-12-20T07:20:00Z,27.2070,-90.2830,60.4,6.3,141.0,99.0,'11111222,11111222,11144222' 
ADCP,ioos:station:wmo:42369:1,2013-12-20T07:40:00Z,27.2070,-90.2830,60.4,6.3,141.0,99.0,'11111222,11111222,11144222' 
ADCP,ioos:station:wmo:42369:1,2013-12-20T08:00:00Z,27.2070,-90.2830,60.4,6.3,131.0,99.0,'11111222,11111222,11144222' 
ADCP,ioos:station:wmo:42369:1,2013-12-20T08:20:00Z,27.2070,-90.2830,60.4,6.9,131.0,99.0,'11111222,11111222,11144222' 
ADCP,ioos:station:wmo:42369:1,2013-12-20T08:40:00Z,27.2070,-90.2830,60.4,7.3,130.0,99.0,'11111222,11111222,11144222' 
ADCP,ioos:station:wmo:42369:1,2013-12-20T09:00:00Z,27.2070,-90.2830,60.4,7.3,130.0,99.0,'11111222,11111222,11144222' 
ADCP,ioos:station:wmo:42369:1,2013-12-20T09:20:00Z,27.2070,-90.2830,60.4,7.3,130.0,99.0,'11111222,11111222,11144222' 
ADCP,ioos:station:wmo:42369:1,2013-12-20T09:40:00Z,27.2070,-90.2830,60.4,7.3,129.0,99.0,'11111222,11111222,11144222' 
ADCP,ioos:station:wmo:42369:1,2013-12-20T10:00:00Z,27.2070,-90.2830,60.4,6.7,125.0,99.0,'11111222,11111222,11144222' 
ADCP,ioos:station:wmo:42369:1,2013-12-20T10:20:00Z,27.2070,-90.2830,60.4,6.8,126.0,99.0,'11111222,11111222,11144222' 
ADCP,ioos:station:wmo:42369:1,2013-12-20T10:40:00Z,27.2070,-90.2830,60.4,6.8,126.0,99.0,'11111222,11111222,11144222' 
ADCP,ioos:station:wmo:42369:1,2013-12-20T11:00:00Z,27.2070,-90.2830,60.4,6.8,126.0,99.0,'11111222,11111222,11144222' 
ADCP,ioos:station:wmo:42369:1,2013-12-20T11:20:00Z,27.2070,-90.2830,60.4,6.8,126.0,99.0,'11111222,11111222,11144222' 
ADCP,ioos:station:wmo:42369:1,2013-12-20T11:40:00Z,27.2070,-90.2830,60.4,6.8,126.0,99.0,'11111222,11111222,11144222' 
ADCP,ioos:station:wmo:42369:1,2013-12-20T12:00:00Z,27.2070,-90.2830,60.4,6.8,126.0,99.0,'11111222,11111222,11144222' 
ADCP,ioos:station:wmo:42369:1,2013-12-20T12:20:00Z,27.2070,-90.2830,60.4,7.7,124.0,99.0,'11111222,11111222,11144222' 
ADCP,ioos:station:wmo:42369:1,2013-12-20T12:40:00Z,27.2070,-90.2830,60.4,7.7,124.0,99.0,'11111222,11111222,11144222' 
ADCP,ioos:station:wmo:42369:1,2013-12-20T13:00:00Z,27.2070,-90.2830,60.4,7.0,123.0,99.0,'11111222,11111222,11144222' 
ADCP,ioos:station:wmo:42369:1,2013-12-20T13:20:00Z,27.2070,-90.2830,60.4,7.0,123.0,99.0,'11111222,11111222,11144222' 
ADCP,ioos:station:wmo:42369:1,2013-12-20T13:40:00Z,27.2070,-90.2830,60.4,7.0,123.0,99.0,'11111222,11111222,11144222' 
ADCP,ioos:station:wmo:42369:1,2013-12-20T14:00:00Z,27.2070,-90.2830,60.4,6.6,122.0,99.0,'11111222,11111222,11144222' 
ADCP,ioos:station:wmo:42369:1,2013-12-20T14:20:00Z,27.2070,-90.2830,60.4,6.5,120.0,99.0,'11111222,11111222,11144222' 
ADCP,ioos:station:wmo:42369:1,2013-12-20T14:40:00Z,27.2070,-90.2830,60.4,6.5,120.0,99.0,'11111222,11111222,11144222' 
ADCP,ioos:station:wmo:42369:1,2013-12-20T15:00:00Z,27.2070,-90.2830,60.4,6.5,120.0,99.0,'11111222,11111222,11144222' 
ADCP,ioos:station:wmo:42369:1,2013-12-20T15:20:00Z,27.2070,-90.2830,60.4,6.5,120.0,99.0,'11111222,11111222,11144222' 
ADCP,ioos:station:wmo:42369:1,2013-12-20T15:40:00Z,27.2070,-90.2830,60.4,6.5,120.0,99.0,'11111222,11111222,11144222' 
ADCP,ioos:station:wmo:42369:1,2013-12-20T16:00:00Z,27.2070,-90.2830,60.4,6.7,119.0,99.0,'11111222,11111222,11144222' 
ADCP,ioos:station:wmo:42369:1,2013-12-20T16:20:00Z,27.2070,-90.2830,60.4,6.7,119.0,99.0,'11111222,11111222,11144222' 
ADCP,ioos:station:wmo:42369:1,2013-12-20T16:40:00Z,27.2070,-90.2830,60.4,6.7,119.0,99.0,'11111222,11111222,11144222' 
ADCP,ioos:station:wmo:42369:1,2013-12-20T17:00:00Z,27.2070,-90.2830,60.4,6.7,119.0,99.0,'11111222,11111222,11144222' 
ADCP,ioos:station:wmo:42369:1,2013-12-20T17:20:00Z,27.2070,-90.2830,60.4,6.7,119.0,99.0,'11111222,11111222,11144222' 
ADCP,ioos:station:wmo:42369:1,2013-12-20T17:40:00Z,27.2070,-90.2830,60.4,6.7,119.0,99.0,'11111222,11111222,11144222' 
ADCP,ioos:station:wmo:42369:1,2013-12-20T18:00:00Z,27.2070,-90.2830,60.4,6.3,114.0,99.0,'11111222,11111222,11144222' 
ADCP,ioos:station:wmo:42369:1,2013-12-20T18:20:00Z,27.2070,-90.2830,60.4,6.2,114.0,99.0,'11111222,11111222,11144222' 
ADCP,ioos:station:wmo:42369:1,2013-12-20T18:40:00Z,27.2070,-90.2830,60.4,6.2,114.0,99.0,'11111222,11111222,11144222' 
ADCP,ioos:station:wmo:42369:1,2013-12-20T19:00:00Z,27.2070,-90.2830,60.4,6.6,116.0,99.0,'11111222,11111222,11144222' 
ADCP,ioos:station:wmo:42369:1,2013-12-20T19:20:00Z,27.2070,-90.2830,60.4,6.6,116.0,99.0,'11111222,11111222,11144222' 
ADCP,ioos:station:wmo:42369:1,2013-12-20T19:40:00Z,27.2070,-90.2830,60.4,5.9,117.0,99.0,'11111222,11111222,11144222' 
ADCP,ioos:station:wmo:42369:1,2013-12-20T20:00:00Z,27.2070,-90.2830,60.4,6.1,121.0,99.0,'11111222,11111222,11144222' 
ADCP,ioos:station:wmo:42369:1,2013-12-20T20:20:00Z,27.2070,-90.2830,60.4,5.6,117.0,99.0,'11111222,11111222,11144222' 
ADCP,ioos:station:wmo:42369:1,2013-12-20T20:40:00Z,27.2070,-90.2830,60.4,5.6,117.0,99.0,'11111222,11111222,11144222' 
ADCP,ioos:station:wmo:42369:1,2013-12-20T21:00:00Z,27.2070,-90.2830,60.4,5.6,117.0,99.0,'11111222,11111222,11144222' 
ADCP,ioos:station:wmo:42369:1,2013-12-20T21:20:00Z,27.2070,-90.2830,60.4,5.6,117.0,99.0,'11111222,11111222,11144222' 
ADCP,ioos:station:wmo:42369:1,2013-12-20T21:40:00Z,27.2070,-90.2830,60.4,5.6,117.0,99.0,'11111222,11111222,11144222' 
ADCP,ioos:station:wmo:42369:1,2013-12-20T22:00:00Z,27.2070,-90.2830,60.4,5.6,117.0,99.0,'11111222,11111222,11144222' 
ADCP,ioos:station:wmo:42369:1,2013-12-20T22:20:00Z,27.2070,-90.2830,60.4,7.0,102.0,99.0,'11111222,11111222,11144222' 
ADCP,ioos:station:wmo:42369:1,2013-12-20T22:40:00Z,27.2070,-90.2830,60.4,6.9,112.0,99.0,'11111222,11111222,11144222' 
ADCP,ioos:station:wmo:42369:1,2013-12-20T23:00:00Z,27.2070,-90.2830,60.4,7.2,113.0,99.0,'11111222,11111222,11144222' 
ADCP,ioos:station:wmo:42369:1,2013-12-20T23:20:00Z,27.2070,-90.2830,60.4,7.2,113.0,99.0,'11111222,11111222,11144222' 
ADCP,ioos:station:wmo:42369:1,2013-12-20T23:40:00Z,27.2070,-90.2830,60.4,7.9,110.0,99.0,'11111222,11111222,11144222' 
ADCP,ioos:station:wmo:42369:1,2013-12-21T00:00:00Z,27.2070,-90.2830,60.4,7.9,110.0,99.0,'11111222,11111222,11144222' 
ADCP,ioos:station:wmo:42369:1,2013-12-21T00:20:00Z,27.2070,-90.2830,60.4,8.7,115.0,99.0,'11111222,11111222,11144222' 
ADCP,ioos:station:wmo:42369:1,2013-12-21T00:40:00Z,27.2070,-90.2830,60.4,8.7,115.0,99.0,'11111222,11111222,11144222' 
ADCP,ioos:station:wmo:42369:1,2013-12-21T01:00:00Z,27.2070,-90.2830,60.4,8.7,115.0,99.0,'11111222,11111222,11144222' 
ADCP,ioos:station:wmo:42369:1,2013-12-21T01:20:00Z,27.2070,-90.2830,60.4,7.9,113.0,99.0,'11111222,11111222,11144222' 
ADCP,ioos:station:wmo:42369:1,2013-12-21T01:40:00Z,27.2070,-90.2830,60.4,7.8,112.0,99.0,'11111222,11111222,11144222' 
ADCP,ioos:station:wmo:42369:1,2013-12-21T02:00:00Z,27.2070,-90.2830,60.4,8.0,114.0,99.0,'11111222,11111222,11144222' 
ADCP,ioos:station:wmo:42369:1,2013-12-21T02:20:00Z,27.2070,-90.2830,60.4,7.6,118.0,99.0,'11111222,11111222,11144222' 
ADCP,ioos:station:wmo:42369:1,2013-12-21T02:40:00Z,27.2070,-90.2830,60.4,7.6,118.0,99.0,'11111222,11111222,11144222' 
ADCP,ioos:station:wmo:42369:1,2013-12-21T03:00:00Z,27.2070,-90.2830,60.4,7.7,118.0,99.0,'11111222,11111222,11144222' 
ADCP,ioos:station:wmo:42369:1,2013-12-21T03:20:00Z,27.2070,-90.2830,60.4,7.7,118.0,99.0,'11111222,11111222,11144222' 
ADCP,ioos:station:wmo:42369:1,2013-12-21T03:40:00Z,27.2070,-90.2830,60.4,8.4,116.0,99.0,'11111222,11111222,11144222' 
ADCP,ioos:station:wmo:42369:1,2013-12-21T04:00:00Z,27.2070,-90.2830,60.4,8.4,116.0,99.0,'11111222,11111222,11144222' 
ADCP,ioos:station:wmo:42369:1,2013-12-21T04:20:00Z,27.2070,-90.2830,60.4,8.4,116.0,99.0,'11111222,11111222,11144222' 
ADCP,ioos:station:wmo:42369:1,2013-12-21T04:40:00Z,27.2070,-90.2830,60.4,8.4,116.0,99.0,'11111222,11111222,11144222' 
ADCP,ioos:station:wmo:42369:1,2013-12-21T05:00:00Z,27.2070,-90.2830,60.4,8.4,116.0,99.0,'11111222,11111222,11144222' 
ADCP,ioos:station:wmo:42369:1,2013-12-21T05:20:00Z,27.2070,-90.2830,60.4,8.4,116.0,99.0,'11111222,11111222,11144222' 
ADCP,ioos:station:wmo:42369:1,2013-12-21T05:40:00Z,27.2070,-90.2830,60.4,7.1,121.0,99.0,'11111222,11111222,11144222' 
ADCP,ioos:station:wmo:42369:1,2013-12-21T06:00:00Z,27.2070,-90.2830,60.4,7.0,121.0,99.0,'11111222,11111222,11144222' 
ADCP,ioos:station:wmo:42369:1,2013-12-21T06:20:00Z,27.2070,-90.2830,60.4,8.0,124.0,99.0,'11111222,11111222,11144222' 
ADCP,ioos:station:wmo:42369:1,2013-12-21T06:40:00Z,27.2070,-90.2830,60.4,8.0,124.0,99.0,'11111222,11111222,11144222' 
ADCP,ioos:station:wmo:42369:1,2013-12-21T07:00:00Z,27.2070,-90.2830,60.4,8.0,124.0,99.0,'11111222,11111222,11144222' 
ADCP,ioos:station:wmo:42369:1,2013-12-21T07:20:00Z,27.2070,-90.2830,60.4,8.0,124.0,99.0,'11111222,11111222,11144222' 
ADCP,ioos:station:wmo:42369:1,2013-12-21T07:40:00Z,27.2070,-90.2830,60.4,8.0,124.0,99.0,'11111222,11111222,11144222' 
ADCP,ioos:station:wmo:42369:1,2013-12-21T08:00:00Z,27.2070,-90.2830,60.4,8.0,124.0,99.0,'11111222,11111222,11144222' 
ADCP,ioos:station:wmo:42369:1,2013-12-21T08:20:00Z,27.2070,-90.2830,60.4,10.3,131.0,99.0,'11111222,11111222,11144222' 
ADCP,ioos:station:wmo:42369:1,2013-12-21T08:40:00Z,27.2070,-90.2830,60.4,11.4,131.0,99.0,'11111222,11111222,11144222' 
ADCP,ioos:station:wmo:42369:1,2013-12-21T09:00:00Z,27.2070,-90.2830,60.4,11.4,131.0,99.0,'11111222,11111222,11144222' 
ADCP,ioos:station:wmo:42369:1,2013-12-21T09:20:00Z,27.2070,-90.2830,60.4,10.7,130.0,99.0,'11111222,11111222,11144222' 
ADCP,ioos:station:wmo:42369:1,2013-12-21T09:40:00Z,27.2070,-90.2830,60.4,10.7,130.0,99.0,'11111222,11111222,11144222' 
ADCP,ioos:station:wmo:42369:1,2013-12-21T10:00:00Z,27.2070,-90.2830,60.4,10.7,131.0,99.0,'11111222,11111222,11144222' 
ADCP,ioos:station:wmo:42369:1,2013-12-21T11:00:00Z,27.2070,-90.2830,60.4,12.3,135.0,99.0,'11111222,11111222,11144222' 
ADCP,ioos:station:wmo:42369:1,2013-12-21T11:20:00Z,27.2070,-90.2830,60.4,12.7,136.0,99.0,'11111222,11111222,11144222' 
ADCP,ioos:station:wmo:42369:1,2013-12-21T11:40:00Z,27.2070,-90.2830,60.4,12.5,137.0,99.0,'11111222,11111222,11144222' 
ADCP,ioos:station:wmo:42369:1,2013-12-21T12:00:00Z,27.2070,-90.2830,60.4,11.0,141.0,99.0,'11111222,11111222,11144222' 
ADCP,ioos:station:wmo:42369:1,2013-12-21T12:20:00Z,27.2070,-90.2830,60.4,11.2,142.0,99.0,'11111222,11111222,11144222' 
ADCP,ioos:station:wmo:42369:1,2013-12-21T12:40:00Z,27.2070,-90.2830,60.4,11.2,142.0,99.0,'11111222,11111222,11144222' 
ADCP,ioos:station:wmo:42369:1,2013-12-21T13:00:00Z,27.2070,-90.2830,60.4,11.2,142.0,99.0,'11111222,11111222,11144222' 
ADCP,ioos:station:wmo:42369:1,2013-12-21T13:20:00Z,27.2070,-90.2830,60.4,12.9,144.0,99.0,'11111222,11111222,11144222' 
ADCP,ioos:station:wmo:42369:1,2013-12-21T13:40:00Z,27.2070,-90.2830,60.4,12.9,144.0,99.0,'11111222,11111222,11144222' 
ADCP,ioos:station:wmo:42369:1,2013-12-21T14:00:00Z,27.2070,-90.2830,60.4,12.9,144.0,99.0,'11111222,11111222,11144222' 
ADCP,ioos:station:wmo:42369:1,2013-12-21T14:20:00Z,27.2070,-90.2830,60.4,13.8,142.0,99.0,'11111222,11111222,11144222' 
ADCP,ioos:station:wmo:42369:1,2013-12-21T14:40:00Z,27.2070,-90.2830,60.4,13.8,142.0,99.0,'11111222,11111222,11144222' 
ADCP,ioos:station:wmo:42369:1,2013-12-21T15:00:00Z,27.2070,-90.2830,60.4,13.8,142.0,99.0,'11111222,11111222,11144222' 
ADCP,ioos:station:wmo:42369:1,2013-12-21T15:20:00Z,27.2070,-90.2830,60.4,14.1,143.0,99.0,'11111222,11111222,11144222' 
ADCP,ioos:station:wmo:42369:1,2013-12-21T15:40:00Z,27.2070,-90.2830,60.4,15.7,145.0,99.0,'11111222,11111222,11144222' 
ADCP,ioos:station:wmo:42369:1,2013-12-21T16:00:00Z,27.2070,-90.2830,60.4,14.8,147.0,99.0,'11111222,11111222,11144222' 
ADCP,ioos:station:wmo:42369:1,2013-12-21T16:20:00Z,27.2070,-90.2830,60.4,14.8,147.0,99.0,'11111222,11111222,11144222' 
ADCP,ioos:station:wmo:42369:1,2013-12-21T16:40:00Z,27.2070,-90.2830,60.4,14.8,147.0,99.0,'11111222,11111222,11144222' 
ADCP,ioos:station:wmo:42369:1,2013-12-21T17:00:00Z,27.2070,-90.2830,60.4,14.8,147.0,99.0,'11111222,11111222,11144222' 
ADCP,ioos:station:wmo:42369:1,2013-12-21T17:20:00Z,27.2070,-90.2830,60.4,14.8,147.0,99.0,'11111222,11111222,11144222' 
ADCP,ioos:station:wmo:42369:1,2013-12-21T17:40:00Z,27.2070,-90.2830,60.4,14.8,147.0,99.0,'11111222,11111222,11144222' 
ADCP,ioos:station:wmo:42369:1,2013-12-21T18:00:00Z,27.2070,-90.2830,60.4,16.0,147.0,99.0,'11111222,11111222,11144222' 
ADCP,ioos:station:wmo:42369:1,2013-12-21T18:20:00Z,27.2070,-90.2830,60.4,16.0,147.0,99.0,'11111222,11111222,11144222' 
ADCP,ioos:station:wmo:42369:1,2013-12-21T18:40:00Z,27.2070,-90.2830,60.4,14.2,150.0,99.0,'11111222,11111222,11144222' 
ADCP,ioos:station:wmo:42369:1,2013-12-21T19:00:00Z,27.2070,-90.2830,60.4,14.2,150.0,99.0,'11111222,11111222,11144222' 
ADCP,ioos:station:wmo:42369:1,2013-12-21T19:20:00Z,27.2070,-90.2830,60.4,13.9,149.0,99.0,'11111222,11111222,11144222' 
ADCP,ioos:station:wmo:42369:1,2013-12-21T19:40:00Z,27.2070,-90.2830,60.4,13.9,149.0,99.0,'11111222,11111222,11144222' 
ADCP,ioos:station:wmo:42369:1,2013-12-21T20:20:00Z,27.2070,-90.2830,60.4,12.0,148.0,99.0,'11111222,11111222,11144222' 
ADCP,ioos:station:wmo:42369:1,2013-12-21T20:40:00Z,27.2070,-90.2830,60.4,12.0,148.0,99.0,'11111222,11111222,11144222' 
ADCP,ioos:station:wmo:42369:1,2013-12-21T21:00:00Z,27.2070,-90.2830,60.4,13.4,152.0,99.0,'11111222,11111222,11144222' 
ADCP,ioos:station:wmo:42369:1,2013-12-21T21:20:00Z,27.2070,-90.2830,60.4,13.4,152.0,99.0,'11111222,11111222,11144222' 
ADCP,ioos:station:wmo:42369:1,2013-12-21T21:40:00Z,27.2070,-90.2830,60.4,13.4,152.0,99.0,'11111222,11111222,11144222' 
ADCP,ioos:station:wmo:42369:1,2013-12-21T22:00:00Z,27.2070,-90.2830,60.4,12.4,153.0,99.0,'11111222,11111222,11144222' 
ADCP,ioos:station:wmo:42369:1,2013-12-21T22:20:00Z,27.2070,-90.2830,60.4,12.3,151.0,99.0,'11111222,11111222,11144222' 
ADCP,ioos:station:wmo:42369:1,2013-12-21T22:40:00Z,27.2070,-90.2830,60.4,12.3,151.0,99.0,'11111222,11111222,11144222' 
ADCP,ioos:station:wmo:42369:1,2013-12-21T23:00:00Z,27.2070,-90.2830,60.4,12.4,153.0,99.0,'11111222,11111222,11144222' 
ADCP,ioos:station:wmo:42369:1,2013-12-21T23:20:00Z,27.2070,-90.2830,60.4,12.4,153.0,99.0,'11111222,11111222,11144222' 
ADCP,ioos:station:wmo:42369:1,2013-12-22T00:00:00Z,27.2070,-90.2830,60.4,11.9,153.0,99.0,'11111222,11111222,11144222' 
ADCP,ioos:station:wmo:42369:1,2013-12-22T00:20:00Z,27.2070,-90.2830,60.4,11.7,152.0,99.0,'11111222,11111222,11144222' 
ADCP,ioos:station:wmo:42369:1,2013-12-22T00:40:00Z,27.2070,-90.2830,60.4,11.7,149.0,99.0,'11111222,11111222,11144222' 
ADCP,ioos:station:wmo:42369:1,2013-12-22T01:00:00Z,27.2070,-90.2830,60.4,11.7,149.0,99.0,'11111222,11111222,11144222' 
ADCP,ioos:station:wmo:42369:1,2013-12-22T01:20:00Z,27.2070,-90.2830,60.4,14.3,143.0,99.0,'11111222,11111222,11144222' 
ADCP,ioos:station:wmo:42369:1,2013-12-22T01:40:00Z,27.2070,-90.2830,60.4,14.1,142.0,99.0,'11111222,11111222,11144222' 
ADCP,ioos:station:wmo:42369:1,2013-12-22T02:00:00Z,27.2070,-90.2830,60.4,15.7,135.0,99.0,'11111222,11111222,11144222' 
ADCP,ioos:station:wmo:42369:1,2013-12-22T02:20:00Z,27.2070,-90.2830,60.4,15.7,135.0,99.0,'11111222,11111222,11144222' 
ADCP,ioos:station:wmo:42369:1,2013-12-22T02:40:00Z,27.2070,-90.2830,60.4,15.3,132.0,99.0,'11111222,11111222,11144222' 
ADCP,ioos:station:wmo:42369:1,2013-12-22T03:00:00Z,27.2070,-90.2830,60.4,15.3,132.0,99.0,'11111222,11111222,11144222' 
ADCP,ioos:station:wmo:42369:1,2013-12-22T03:20:00Z,27.2070,-90.2830,60.4,15.3,132.0,99.0,'11111222,11111222,11144222' 
ADCP,ioos:station:wmo:42369:1,2013-12-22T03:40:00Z,27.2070,-90.2830,60.4,15.3,132.0,99.0,'11111222,11111222,11144222' 
ADCP,ioos:station:wmo:42369:1,2013-12-22T04:00:00Z,27.2070,-90.2830,60.4,15.3,132.0,99.0,'11111222,11111222,11144222' 
ADCP,ioos:station:wmo:42369:1,2013-12-22T04:20:00Z,27.2070,-90.2830,60.4,13.9,142.0,99.0,'11111222,11111222,11144222' 
ADCP,ioos:station:wmo:42369:1,2013-12-22T04:40:00Z,27.2070,-90.2830,60.4,15.2,133.0,99.0,'11111222,11111222,11144222' 
ADCP,ioos:station:wmo:42369:1,2013-12-22T05:00:00Z,27.2070,-90.2830,60.4,15.2,133.0,99.0,'11111222,11111222,11144222' 
ADCP,ioos:station:wmo:42369:1,2013-12-22T05:20:00Z,27.2070,-90.2830,60.4,15.7,137.0,99.0,'11111222,11111222,11144222' 
ADCP,ioos:station:wmo:42369:1,2013-12-22T05:40:00Z,27.2070,-90.2830,60.4,14.9,142.0,99.0,'11111222,11111222,11144222' 
ADCP,ioos:station:wmo:42369:1,2013-12-22T06:00:00Z,27.2070,-90.2830,60.4,14.2,142.0,99.0,'11111222,11111222,11144222' 
ADCP,ioos:station:wmo:42369:1,2013-12-22T06:20:00Z,27.2070,-90.2830,60.4,13.8,143.0,99.0,'11111222,11111222,11144222' 
ADCP,ioos:station:wmo:42369:1,2013-12-22T06:40:00Z,27.2070,-90.2830,60.4,13.8,143.0,99.0,'11111222,11111222,11144222' 
ADCP,ioos:station:wmo:42369:1,2013-12-22T07:00:00Z,27.2070,-90.2830,60.4,14.1,146.0,99.0,'11111222,11111222,11144222' 
ADCP,ioos:station:wmo:42369:1,2013-12-22T07:20:00Z,27.2070,-90.2830,60.4,14.1,146.0,99.0,'11111222,11111222,11144222' 
ADCP,ioos:station:wmo:42369:1,2013-12-22T07:40:00Z,27.2070,-90.2830,60.4,13.8,147.0,99.0,'11111222,11111222,11144222' 
ADCP,ioos:station:wmo:42369:1,2013-12-22T08:00:00Z,27.2070,-90.2830,60.4,13.6,148.0,99.0,'11111222,11111222,11144222' 
ADCP,ioos:station:wmo:42369:1,2013-12-22T08:20:00Z,27.2070,-90.2830,60.4,13.6,148.0,99.0,'11111222,11111222,11144222' 
ADCP,ioos:station:wmo:42369:1,2013-12-22T08:40:00Z,27.2070,-90.2830,60.4,13.8,142.0,99.0,'11111222,11111222,11144222' 
ADCP,ioos:station:wmo:42369:1,2013-12-22T09:00:00Z,27.2070,-90.2830,60.4,13.8,142.0,99.0,'11111222,11111222,11144222' 
ADCP,ioos:station:wmo:42369:1,2013-12-22T09:20:00Z,27.2070,-90.2830,60.4,11.6,155.0,99.0,'11111222,11111222,11144222' 
ADCP,ioos:station:wmo:42369:1,2013-12-22T09:40:00Z,27.2070,-90.2830,60.4,12.1,151.0,99.0,'11111222,11111222,11144222' 
ADCP,ioos:station:wmo:42369:1,2013-12-22T10:00:00Z,27.2070,-90.2830,60.4,12.1,151.0,99.0,'11111222,11111222,11144222' 
ADCP,ioos:station:wmo:42369:1,2013-12-22T10:20:00Z,27.2070,-90.2830,60.4,12.1,151.0,99.0,'11111222,11111222,11144222' 
ADCP,ioos:station:wmo:42369:1,2013-12-22T10:40:00Z,27.2070,-90.2830,60.4,12.1,151.0,99.0,'11111222,11111222,11144222' 
ADCP,ioos:station:wmo:42369:1,2013-12-22T11:00:00Z,27.2070,-90.2830,60.4,11.1,150.0,99.0,'11111222,11111222,11144222' 
ADCP,ioos:station:wmo:42369:1,2013-12-22T11:20:00Z,27.2070,-90.2830,60.4,10.8,149.0,99.0,'11111222,11111222,11144222' 
ADCP,ioos:station:wmo:42369:1,2013-12-22T11:40:00Z,27.2070,-90.2830,60.4,10.8,149.0,99.0,'11111222,11111222,11144222' 
ADCP,ioos:station:wmo:42369:1,2013-12-22T12:00:00Z,27.2070,-90.2830,60.4,10.8,149.0,99.0,'11111222,11111222,11144222' 
ADCP,ioos:station:wmo:42369:1,2013-12-22T12:20:00Z,27.2070,-90.2830,60.4,10.8,149.0,99.0,'11111222,11111222,11144222' 
ADCP,ioos:station:wmo:42369:1,2013-12-22T12:40:00Z,27.2070,-90.2830,60.4,10.8,149.0,99.0,'11111222,11111222,11144222' 
ADCP,ioos:station:wmo:42369:1,2013-12-22T13:00:00Z,27.2070,-90.2830,60.4,10.8,149.0,99.0,'11111222,11111222,11144222' 
ADCP,ioos:station:wmo:42369:1,2013-12-22T13:20:00Z,27.2070,-90.2830,60.4,10.8,149.0,99.0,'11111222,11111222,11144222' 
ADCP,ioos:station:wmo:42369:1,2013-12-22T13:40:00Z,27.2070,-90.2830,60.4,10.8,149.0,99.0,'11111222,11111222,11144222' 
ADCP,ioos:station:wmo:42369:1,2013-12-22T14:00:00Z,27.2070,-90.2830,60.4,6.2,149.0,99.0,'11111222,11111222,11144222' 
ADCP,ioos:station:wmo:42369:1,2013-12-22T14:20:00Z,27.2070,-90.2830,60.4,6.2,149.0,99.0,'11111222,11111222,11144222' 
ADCP,ioos:station:wmo:42369:1,2013-12-22T14:40:00Z,27.2070,-90.2830,60.4,6.0,162.0,99.0,'11111222,11111222,11144222' 
ADCP,ioos:station:wmo:42369:1,2013-12-22T15:00:00Z,27.2070,-90.2830,60.4,6.0,162.0,99.0,'11111222,11111222,11144222' 
ADCP,ioos:station:wmo:42369:1,2013-12-22T15:20:00Z,27.2070,-90.2830,60.4,6.0,162.0,99.0,'11111222,11111222,11144222' 
ADCP,ioos:station:wmo:42369:1,2013-12-22T15:40:00Z,27.2070,-90.2830,60.4,9.0,154.0,99.0,'11111222,11111222,11144222' 
ADCP,ioos:station:wmo:42369:1,2013-12-22T16:00:00Z,27.2070,-90.2830,60.4,9.0,154.0,99.0,'11111222,11111222,11144222' 
ADCP,ioos:station:wmo:42369:1,2013-12-22T16:20:00Z,27.2070,-90.2830,60.4,9.5,152.0,99.0,'11111222,11111222,11144222' 
ADCP,ioos:station:wmo:42369:1,2013-12-22T16:40:00Z,27.2070,-90.2830,60.4,8.1,157.0,99.0,'11111222,11111222,11144222' 
ADCP,ioos:station:wmo:42369:1,2013-12-22T17:00:00Z,27.2070,-90.2830,60.4,8.1,157.0,99.0,'11111222,11111222,11144222' 
ADCP,ioos:station:wmo:42369:1,2013-12-22T17:20:00Z,27.2070,-90.2830,60.4,8.1,157.0,99.0,'11111222,11111222,11144222' 
ADCP,ioos:station:wmo:42369:1,2013-12-22T17:40:00Z,27.2070,-90.2830,60.4,8.1,157.0,99.0,'11111222,11111222,11144222' 
ADCP,ioos:station:wmo:42369:1,2013-12-22T18:00:00Z,27.2070,-90.2830,60.4,7.8,151.0,99.0,'11111222,11111222,11144222' 
ADCP,ioos:station:wmo:42369:1,2013-12-22T18:20:00Z,27.2070,-90.2830,60.4,9.1,154.0,99.0,'11111222,11111222,11144222' 
ADCP,ioos:station:wmo:42369:1,2013-12-22T18:40:00Z,27.2070,-90.2830,60.4,9.1,154.0,99.0,'11111222,11111222,11144222' 
ADCP,ioos:station:wmo:42369:1,2013-12-22T19:00:00Z,27.2070,-90.2830,60.4,9.1,154.0,99.0,'11111222,11111222,11144222' 
ADCP,ioos:station:wmo:42369:1,2013-12-22T19:20:00Z,27.2070,-90.2830,60.4,9.1,154.0,99.0,'11111222,11111222,11144222' 
ADCP,ioos:station:wmo:42369:1,2013-12-22T19:40:00Z,27.2070,-90.2830,60.4,8.1,154.0,99.0,'11111222,11111222,11144222' 
ADCP,ioos:station:wmo:42369:1,2013-12-22T20:00:00Z,27.2070,-90.2830,60.4,8.1,154.0,99.0,'11111222,11111222,11144222' 